TimeAKDT,TemperatureF,Dew PointF,Humidity,Sea Level PressureIn,VisibilityMPH,Wind Direction,Wind SpeedMPH,Gust SpeedMPH,PrecipitationIn,Events,Conditions,WindDirDegrees,DateUTC
12:53 AM,26.1,24.1,92,30.19,10.0,NE,15.0,-,N/A,,Overcast,40,2013-10-01 08:53:00
1:14 AM,26.6,24.8,93,30.19,10.0,NE,12.7,-,N/A,,Overcast,50,2013-10-01 09:14:00
1:53 AM,26.1,24.1,92,30.20,10.0,NE,12.7,-,0.00,,Overcast,40,2013-10-01 09:53:00
2:14 AM,26.6,24.8,93,30.19,10.0,NE,11.5,-,0.00,,Overcast,50,2013-10-01 10:14:00
2:46 AM,26.6,24.8,93,30.19,10.0,NE,12.7,-,0.00,,Overcast,50,2013-10-01 10:46:00
2:51 AM,26.6,24.8,93,30.19,10.0,NE,11.5,-,0.00,,Overcast,40,2013-10-01 10:51:00
2:53 AM,26.1,24.1,92,30.20,10.0,NE,11.5,-,0.00,,Overcast,40,2013-10-01 10:53:00
3:46 AM,26.6,24.8,93,30.20,4.0,NE,11.5,-,0.00,Snow,Light Snow,50,2013-10-01 11:46:00
3:53 AM,26.1,25.0,96,30.20,5.0,NE,12.7,-,0.00,Snow,Light Snow,40,2013-10-01 11:53:00
4:22 AM,26.6,24.8,93,30.20,10.0,NE,13.8,-,0.00,,Overcast,50,2013-10-01 12:22:00
4:53 AM,26.1,25.0,96,30.20,8.0,NE,13.8,-,0.00,Snow,Light Snow,50,2013-10-01 12:53:00
5:30 AM,26.6,24.8,93,30.20,3.0,NE,13.8,-,0.00,Snow,Light Snow,40,2013-10-01 13:30:00
5:50 AM,26.6,24.8,93,30.20,3.0,NE,10.4,-,0.00,Snow,Light Snow,50,2013-10-01 13:50:00
5:53 AM,26.1,25.0,96,30.20,2.5,NE,11.5,-,0.00,Snow,Light Snow,50,2013-10-01 13:53:00
6:01 AM,26.6,24.8,93,30.20,3.0,NE,12.7,-,0.00,Snow,Light Snow,50,2013-10-01 14:01:00
6:53 AM,26.1,24.1,92,30.20,2.5,NE,13.8,-,0.00,Snow,Light Snow,40,2013-10-01 14:53:00
7:53 AM,26.1,25.0,96,30.19,3.0,NE,17.3,-,0.00,Snow,Light Snow,40,2013-10-01 15:53:00
8:12 AM,26.6,24.8,93,30.19,7.0,NE,17.3,-,0.00,Snow,Light Snow,50,2013-10-01 16:12:00
8:43 AM,26.6,24.8,93,30.19,4.0,NE,16.1,-,0.00,Snow,Light Snow,50,2013-10-01 16:43:00
8:51 AM,26.6,24.8,93,30.19,2.0,NE,15.0,-,0.00,Snow,Light Snow,50,2013-10-01 16:51:00
8:53 AM,26.1,25.0,96,30.19,1.8,NE,15.0,-,0.00,Snow,Light Snow,50,2013-10-01 16:53:00
9:08 AM,26.6,24.8,93,30.19,1.2,NE,17.3,-,0.00,Snow,Light Snow,50,2013-10-01 17:08:00
9:30 AM,26.6,24.8,93,30.19,3.0,NE,17.3,-,0.00,Snow,Light Snow,50,2013-10-01 17:30:00
9:53 AM,26.1,25.0,96,30.19,10.0,NE,16.1,-,0.00,,Overcast,50,2013-10-01 17:53:00
10:33 AM,26.6,24.8,93,30.19,6.0,NE,16.1,-,0.00,Snow,Light Snow,50,2013-10-01 18:33:00
10:53 AM,27.0,25.0,92,30.19,3.0,NE,15.0,-,0.00,Snow,Light Snow,50,2013-10-01 18:53:00
11:01 AM,26.6,24.8,93,30.19,1.8,NE,16.1,-,0.00,Snow,Light Snow,50,2013-10-01 19:01:00
11:36 AM,26.6,24.8,93,30.19,2.5,NE,16.1,24.2,0.00,Snow,Light Snow,40,2013-10-01 19:36:00
11:48 AM,26.6,26.6,100,30.19,1.5,NE,16.1,-,0.00,Snow,Light Snow,40,2013-10-01 19:48:00
11:53 AM,27.0,26.1,96,30.19,1.2,NE,16.1,-,0.00,Snow,Light Snow,40,2013-10-01 19:53:00
12:32 PM,26.6,26.6,100,30.19,0.8,NE,15.0,-,0.00,Snow,Light Snow,50,2013-10-01 20:32:00
12:42 PM,26.6,26.6,100,30.19,0.8,NE,17.3,-,0.00,Snow,Light Snow,50,2013-10-01 20:42:00
12:48 PM,26.6,26.6,100,30.19,1.0,NE,13.8,-,0.00,Snow,Light Snow,50,2013-10-01 20:48:00
12:53 PM,27.0,26.1,96,30.19,1.2,NE,13.8,-,0.00,Snow,Light Snow,50,2013-10-01 20:53:00
1:07 PM,26.6,26.6,100,30.19,1.8,ENE,16.1,-,0.00,,Overcast,60,2013-10-01 21:07:00
1:14 PM,26.6,26.6,100,30.19,2.5,NE,15.0,-,0.00,Rain,Light Freezing Rain,50,2013-10-01 21:14:00
1:22 PM,26.6,26.6,100,30.19,4.0,NE,16.1,-,0.00,Rain,Light Freezing Rain,50,2013-10-01 21:22:00
1:39 PM,26.6,26.6,100,30.19,4.0,ENE,17.3,-,0.00,,Overcast,60,2013-10-01 21:39:00
1:51 PM,26.6,26.6,100,30.19,2.5,ENE,16.1,-,0.00,,Overcast,60,2013-10-01 21:51:00
1:53 PM,27.0,27.0,100,30.19,2.5,ENE,12.7,21.9,0.00,Rain,Light Freezing Rain,60,2013-10-01 21:53:00
2:12 PM,28.4,26.6,93,30.19,3.0,NE,16.1,-,0.00,Rain,Light Freezing Rain,50,2013-10-01 22:12:00
2:24 PM,28.4,26.6,93,30.19,4.0,NE,15.0,-,0.00,,Overcast,50,2013-10-01 22:24:00
2:53 PM,28.0,27.0,96,30.19,5.0,NE,13.8,-,0.00,,Overcast,50,2013-10-01 22:53:00
3:21 PM,28.4,26.6,93,30.18,4.0,NE,12.7,-,N/A,,Overcast,50,2013-10-01 23:21:00
3:43 PM,28.4,26.6,93,30.17,3.0,NE,12.7,-,0.00,,Overcast,50,2013-10-01 23:43:00
3:53 PM,28.0,28.0,100,30.18,5.0,NE,13.8,-,0.00,,Overcast,50,2013-10-01 23:53:00
4:53 PM,28.0,27.0,96,30.17,10.0,ENE,11.5,-,0.00,,Overcast,60,2013-10-02 00:53:00
5:19 PM,28.4,26.6,93,30.17,10.0,ENE,15.0,-,N/A,,Overcast,60,2013-10-02 01:19:00
5:51 PM,28.4,26.6,93,30.17,8.0,ENE,12.7,-,0.00,,Overcast,60,2013-10-02 01:51:00
5:53 PM,28.0,27.0,96,30.18,8.0,NE,13.8,-,0.00,,Overcast,50,2013-10-02 01:53:00
6:12 PM,28.4,26.6,93,30.17,10.0,NE,11.5,-,0.00,,Overcast,50,2013-10-02 02:12:00
6:40 PM,28.4,26.6,93,30.17,10.0,ENE,11.5,-,0.00,,Overcast,60,2013-10-02 02:40:00
6:53 PM,28.0,26.1,92,30.17,10.0,ENE,15.0,-,0.00,,Overcast,60,2013-10-02 02:53:00
7:53 PM,27.0,26.1,96,30.17,10.0,NE,12.7,-,N/A,,Overcast,50,2013-10-02 03:53:00
8:36 PM,26.6,26.6,100,30.16,10.0,NE,10.4,-,N/A,,Overcast,50,2013-10-02 04:36:00
8:53 PM,27.0,27.0,100,30.16,10.0,NE,9.2,-,N/A,,Overcast,50,2013-10-02 04:53:00
9:53 PM,27.0,27.0,100,30.16,10.0,ENE,9.2,-,N/A,,Overcast,60,2013-10-02 05:53:00
10:51 PM,28.4,26.6,93,30.15,3.0,NE,9.2,-,0.00,,Overcast,50,2013-10-02 06:51:00
10:53 PM,28.0,27.0,96,30.16,3.0,NE,8.1,-,0.00,,Overcast,50,2013-10-02 06:53:00
11:00 PM,28.4,26.6,93,30.15,2.5,NE,8.1,-,0.00,,Overcast,50,2013-10-02 07:00:00
11:12 PM,28.4,26.6,93,30.15,2.5,ENE,9.2,-,0.00,Rain,Light Freezing Rain,60,2013-10-02 07:12:00
11:20 PM,28.4,28.4,100,30.15,2.5,ENE,9.2,-,0.00,Rain,Light Freezing Rain,60,2013-10-02 07:20:00
11:53 PM,28.0,28.0,100,30.16,3.0,NE,10.4,-,0.00,Rain,Light Freezing Rain,50,2013-10-02 07:53:00